Time,TemperatureF,DewpointF,PressureIn,WindDirection,WindDirectionDegrees,WindSpeedMPH,WindSpeedGustMPH,Humidity,HourlyPrecipIn,Conditions,Clouds,dailyrainin,SoftwareType,DateUTC
2013-06-28 00:00:00,71.3,67.0,29.74,WSW,255,2.0,9.0,85,0.00,,,0.00,weatherlink.com 1.10,2013-06-28 05:00:00,
2013-06-28 00:15:00,71.2,67.0,29.74,West,275,5.0,10.0,85,0.00,,,0.00,weatherlink.com 1.10,2013-06-28 05:15:00,
2013-06-28 00:30:00,71.1,67.0,29.74,West,271,5.0,9.0,86,0.00,,,0.00,weatherlink.com 1.10,2013-06-28 05:30:00,
2013-06-28 00:45:00,71.2,67.0,29.73,West,264,4.0,9.0,85,0.00,,,0.00,weatherlink.com 1.10,2013-06-28 05:45:00,
2013-06-28 01:00:00,71.0,66.0,29.73,West,276,3.0,9.0,85,0.00,,,0.00,weatherlink.com 1.10,2013-06-28 06:00:00,
2013-06-28 01:15:00,70.6,66.0,29.72,WSW,257,3.0,8.0,85,0.00,,,0.00,weatherlink.com 1.10,2013-06-28 06:15:00,
2013-06-28 01:30:00,70.0,66.0,29.72,West,260,5.0,7.0,86,0.00,,,0.00,weatherlink.com 1.10,2013-06-28 06:30:00,
2013-06-28 01:46:00,69.2,65.0,29.71,WSW,248,4.0,7.0,87,0.00,,,0.00,weatherlink.com 1.10,2013-06-28 06:46:00,
2013-06-28 02:01:00,69.1,65.0,29.71,West,273,6.0,7.0,86,0.00,,,0.00,weatherlink.com 1.10,2013-06-28 07:01:00,
2013-06-28 02:16:00,69.2,65.0,29.71,West,277,2.0,6.0,85,0.00,,,0.00,weatherlink.com 1.10,2013-06-28 07:16:00,
2013-06-28 02:31:00,69.0,64.0,29.70,West,280,4.0,7.0,85,0.00,,,0.00,weatherlink.com 1.10,2013-06-28 07:31:00,
2013-06-28 02:46:00,68.5,64.0,29.70,West,269,3.0,7.0,86,0.00,,,0.00,weatherlink.com 1.10,2013-06-28 07:46:00,
2013-06-28 03:01:00,67.6,64.0,29.70,West,269,3.0,7.0,87,0.00,,,0.00,weatherlink.com 1.10,2013-06-28 08:01:00,
2013-06-28 03:16:00,67.3,64.0,29.69,West,271,2.0,6.0,88,0.00,,,0.00,weatherlink.com 1.10,2013-06-28 08:16:00,
2013-06-28 03:31:00,67.5,63.0,29.70,West,272,7.0,9.0,86,0.00,,,0.00,weatherlink.com 1.10,2013-06-28 08:31:00,
2013-06-28 03:46:00,67.4,64.0,29.70,West,266,6.0,8.0,87,0.00,,,0.00,weatherlink.com 1.10,2013-06-28 08:46:00,
2013-06-28 04:01:00,67.1,63.0,29.69,West,266,4.0,7.0,87,0.00,,,0.00,weatherlink.com 1.10,2013-06-28 09:01:00,
2013-06-28 04:16:00,66.9,63.0,29.69,West,273,3.0,8.0,86,0.00,,,0.00,weatherlink.com 1.10,2013-06-28 09:16:00,
2013-06-28 04:31:00,66.6,63.0,29.70,West,280,4.0,7.0,87,0.00,,,0.00,weatherlink.com 1.10,2013-06-28 09:31:00,
2013-06-28 04:46:00,66.7,63.0,29.70,West,264,4.0,9.0,87,0.00,,,0.00,weatherlink.com 1.10,2013-06-28 09:46:00,
2013-06-28 05:01:00,66.4,63.0,29.69,West,271,3.0,10.0,88,0.00,,,0.00,weatherlink.com 1.10,2013-06-28 10:01:00,
2013-06-28 05:16:00,66.4,63.0,29.70,West,270,4.0,6.0,88,0.00,,,0.00,weatherlink.com 1.10,2013-06-28 10:16:00,
2013-06-28 05:31:00,67.1,63.0,29.70,West,277,4.0,8.0,86,0.00,,,0.00,weatherlink.com 1.10,2013-06-28 10:31:00,
2013-06-28 05:46:00,67.3,63.0,29.70,West,266,8.0,9.0,86,0.00,,,0.00,weatherlink.com 1.10,2013-06-28 10:46:00,
2013-06-28 06:01:00,67.6,63.0,29.70,WNW,296,3.0,9.0,85,0.00,,,0.00,weatherlink.com 1.10,2013-06-28 11:01:00,
2013-06-28 06:16:00,68.0,63.0,29.71,NW,309,7.0,8.0,84,0.00,,,0.00,weatherlink.com 1.10,2013-06-28 11:16:00,
2013-06-28 06:31:00,68.4,63.0,29.70,West,261,4.0,8.0,83,0.00,,,0.00,weatherlink.com 1.10,2013-06-28 11:31:00,
2013-06-28 06:46:00,68.4,63.0,29.70,West,263,3.0,6.0,84,0.00,,,0.00,weatherlink.com 1.10,2013-06-28 11:46:00,
2013-06-28 07:01:00,68.5,64.0,29.71,West,260,4.0,7.0,86,0.00,,,0.00,weatherlink.com 1.10,2013-06-28 12:01:00,
2013-06-28 07:16:00,69.0,65.0,29.71,WSW,258,6.0,9.0,86,0.00,,,0.00,weatherlink.com 1.10,2013-06-28 12:16:00,
2013-06-28 07:31:00,70.0,65.0,29.71,West,262,4.0,7.0,85,0.00,,,0.00,weatherlink.com 1.10,2013-06-28 12:31:00,
2013-06-28 07:46:00,71.0,65.0,29.70,West,264,3.0,10.0,82,0.00,,,0.00,weatherlink.com 1.10,2013-06-28 12:46:00,
2013-06-28 08:01:00,72.6,65.0,29.71,West,273,5.0,10.0,77,0.00,,,0.00,weatherlink.com 1.10,2013-06-28 13:01:00,
2013-06-28 08:16:00,73.5,65.0,29.70,WNW,291,4.0,11.0,75,0.00,,,0.00,weatherlink.com 1.10,2013-06-28 13:16:00,
2013-06-28 08:31:00,74.7,65.0,29.71,West,272,5.0,11.0,72,0.00,,,0.00,weatherlink.com 1.10,2013-06-28 13:31:00,
2013-06-28 08:46:00,75.9,65.0,29.70,West,267,7.0,10.0,68,0.00,,,0.00,weatherlink.com 1.10,2013-06-28 13:46:00,
2013-06-28 09:01:00,76.8,65.0,29.70,West,273,3.0,9.0,66,0.00,,,0.00,weatherlink.com 1.10,2013-06-28 14:01:00,
2013-06-28 09:17:00,77.9,64.0,29.69,WNW,296,4.0,11.0,62,0.00,,,0.00,weatherlink.com 1.10,2013-06-28 14:17:00,
2013-06-28 09:32:00,78.2,65.0,29.69,West,267,6.0,10.0,64,0.00,,,0.00,weatherlink.com 1.10,2013-06-28 14:32:00,
2013-06-28 09:47:00,78.5,65.0,29.68,WNW,295,4.0,13.0,63,0.00,,,0.00,weatherlink.com 1.10,2013-06-28 14:47:00,
2013-06-28 10:02:00,78.9,65.0,29.68,West,281,9.0,13.0,63,0.00,,,0.00,weatherlink.com 1.10,2013-06-28 15:02:00,
2013-06-28 10:17:00,79.3,65.0,29.68,WSW,244,7.0,14.0,62,0.00,,,0.00,weatherlink.com 1.10,2013-06-28 15:17:00,
2013-06-28 10:32:00,80.0,64.0,29.68,West,259,8.0,14.0,59,0.00,,,0.00,weatherlink.com 1.10,2013-06-28 15:32:00,
2013-06-28 10:47:00,80.3,65.0,29.68,NW,304,10.0,14.0,60,0.00,,,0.00,weatherlink.com 1.10,2013-06-28 15:47:00,
2013-06-28 11:02:00,79.4,65.0,29.68,WNW,294,3.0,18.0,62,0.00,,,0.00,weatherlink.com 1.10,2013-06-28 16:02:00,
2013-06-28 11:17:00,79.8,65.0,29.68,WNW,302,9.0,15.0,61,0.00,,,0.00,weatherlink.com 1.10,2013-06-28 16:17:00,
2013-06-28 11:32:00,80.3,65.0,29.68,NNE,12,8.0,16.0,59,0.00,,,0.00,weatherlink.com 1.10,2013-06-28 16:32:00,
2013-06-28 11:47:00,80.9,63.0,29.68,NW,304,8.0,14.0,55,0.00,,,0.00,weatherlink.com 1.10,2013-06-28 16:47:00,
2013-06-28 12:02:00,81.0,63.0,29.68,NNW,331,5.0,12.0,55,0.00,,,0.00,weatherlink.com 1.10,2013-06-28 17:02:00,
2013-06-28 12:17:00,81.1,63.0,29.67,WNW,296,6.0,15.0,54,0.00,,,0.00,weatherlink.com 1.10,2013-06-28 17:17:00,
2013-06-28 12:32:00,81.4,63.0,29.67,NNW,345,3.0,17.0,54,0.00,,,0.00,weatherlink.com 1.10,2013-06-28 17:32:00,
2013-06-28 12:47:00,81.8,62.0,29.67,NW,306,9.0,15.0,52,0.00,,,0.00,weatherlink.com 1.10,2013-06-28 17:47:00,
2013-06-28 13:02:00,82.1,62.0,29.67,NW,310,4.0,16.0,51,0.00,,,0.00,weatherlink.com 1.10,2013-06-28 18:02:00,
2013-06-28 13:17:00,81.4,61.0,29.66,NNW,345,9.0,15.0,50,0.00,,,0.00,weatherlink.com 1.10,2013-06-28 18:17:00,
2013-06-28 13:32:00,81.7,61.0,29.66,NW,318,9.0,20.0,49,0.00,,,0.00,weatherlink.com 1.10,2013-06-28 18:32:00,
2013-06-28 13:47:00,81.9,62.0,29.66,NW,311,7.0,18.0,51,0.00,,,0.00,weatherlink.com 1.10,2013-06-28 18:47:00,
2013-06-28 14:02:00,81.5,62.0,29.66,NNW,336,13.0,19.0,52,0.00,,,0.00,weatherlink.com 1.10,2013-06-28 19:02:00,
2013-06-28 14:17:00,82.4,60.0,29.65,WNW,301,5.0,21.0,47,0.00,,,0.00,weatherlink.com 1.10,2013-06-28 19:17:00,
2013-06-28 14:32:00,82.4,61.0,29.64,WNW,288,12.0,19.0,48,0.00,,,0.00,weatherlink.com 1.10,2013-06-28 19:32:00,
2013-06-28 14:47:00,82.6,60.0,29.64,NNW,348,8.0,19.0,46,0.00,,,0.00,weatherlink.com 1.10,2013-06-28 19:47:00,
2013-06-28 15:02:00,82.7,59.0,29.64,West,268,3.0,18.0,45,0.00,,,0.00,weatherlink.com 1.10,2013-06-28 20:02:00,
2013-06-28 15:17:00,82.6,59.0,29.63,WNW,293,15.0,20.0,44,0.00,,,0.00,weatherlink.com 1.10,2013-06-28 20:17:00,
2013-06-28 15:32:00,83.0,59.0,29.62,WNW,292,12.0,17.0,44,0.00,,,0.00,weatherlink.com 1.10,2013-06-28 20:32:00,
2013-06-28 15:47:00,82.4,58.0,29.62,NW,313,7.0,21.0,43,0.00,,,0.00,weatherlink.com 1.10,2013-06-28 20:47:00,
2013-06-28 16:02:00,82.9,61.0,29.62,WNW,292,3.0,20.0,47,0.00,,,0.00,weatherlink.com 1.10,2013-06-28 21:02:00,
2013-06-28 16:17:00,81.5,59.0,29.61,NW,314,8.0,19.0,47,0.00,,,0.00,weatherlink.com 1.10,2013-06-28 21:17:00,
2013-06-28 16:32:00,81.6,59.0,29.61,WNW,289,16.0,23.0,47,0.00,,,0.00,weatherlink.com 1.10,2013-06-28 21:32:00,
2013-06-28 16:47:00,82.9,60.0,29.61,NW,312,4.0,19.0,46,0.00,,,0.00,weatherlink.com 1.10,2013-06-28 21:47:00,
2013-06-28 17:02:00,80.9,59.0,29.61,NW,319,14.0,19.0,48,0.00,,,0.00,weatherlink.com 1.10,2013-06-28 22:02:00,
2013-06-28 17:17:00,80.1,59.0,29.61,WNW,292,9.0,19.0,49,0.00,,,0.00,weatherlink.com 1.10,2013-06-28 22:17:00,
2013-06-28 17:32:00,79.4,60.0,29.61,West,272,10.0,14.0,52,0.00,,,0.00,weatherlink.com 1.10,2013-06-28 22:32:00,
2013-06-28 17:47:00,71.7,63.0,29.63,NNW,333,5.0,28.0,74,0.01,,,0.01,weatherlink.com 1.10,2013-06-28 22:47:00,
2013-06-28 18:02:00,69.4,63.0,29.62,NNW,334,1.0,11.0,80,0.04,,,0.04,weatherlink.com 1.10,2013-06-28 23:02:00,
2013-06-28 18:17:00,69.6,64.0,29.62,North,355,2.0,17.0,82,0.04,,,0.04,weatherlink.com 1.10,2013-06-28 23:17:00,
2013-06-28 18:32:00,69.6,64.0,29.62,North,5,3.0,12.0,83,0.04,,,0.04,weatherlink.com 1.10,2013-06-28 23:32:00,
2013-06-28 18:47:00,69.0,64.0,29.62,NW,320,2.0,12.0,84,0.08,,,0.09,weatherlink.com 1.10,2013-06-28 23:47:00,
2013-06-28 19:02:00,68.9,65.0,29.62,WNW,290,4.0,14.0,87,0.06,,,0.10,weatherlink.com 1.10,2013-06-29 00:02:00,
2013-06-28 19:17:00,69.8,65.0,29.61,WNW,293,6.0,8.0,85,0.06,,,0.10,weatherlink.com 1.10,2013-06-29 00:17:00,
2013-06-28 19:33:00,69.5,65.0,29.61,WNW,293,3.0,8.0,85,0.06,,,0.10,weatherlink.com 1.10,2013-06-29 00:33:00,
2013-06-28 19:47:00,69.6,65.0,29.62,WNW,290,5.0,7.0,85,0.01,,,0.10,weatherlink.com 1.10,2013-06-29 00:47:00,
2013-06-28 20:17:00,70.3,66.0,29.62,WNW,302,1.0,8.0,85,0.00,,,0.10,weatherlink.com 1.10,2013-06-29 01:17:00,
2013-06-28 20:32:00,69.7,66.0,29.62,WNW,302,1.0,3.0,87,0.00,,,0.10,weatherlink.com 1.10,2013-06-29 01:32:00,
2013-06-28 20:47:00,69.3,65.0,29.62,WNW,302,2.0,5.0,87,0.00,,,0.10,weatherlink.com 1.10,2013-06-29 01:47:00,
2013-06-28 21:02:00,69.7,64.0,29.62,NNW,345,4.0,9.0,83,0.00,,,0.10,weatherlink.com 1.10,2013-06-29 02:02:00,
2013-06-28 21:18:00,70.1,64.0,29.62,NW,316,0.0,7.0,81,0.00,,,0.10,weatherlink.com 1.10,2013-06-29 02:18:00,
2013-06-28 21:33:00,69.7,64.0,29.63,NW,322,2.0,6.0,82,0.00,,,0.10,weatherlink.com 1.10,2013-06-29 02:33:00,
2013-06-28 21:48:00,69.4,63.0,29.63,NW,318,6.0,7.0,81,0.00,,,0.10,weatherlink.com 1.10,2013-06-29 02:48:00,
2013-06-28 22:03:00,69.1,63.0,29.63,NNW,336,2.0,6.0,81,0.00,,,0.10,weatherlink.com 1.10,2013-06-29 03:03:00,
2013-06-28 22:18:00,69.0,63.0,29.63,NW,312,2.0,8.0,81,0.00,,,0.10,weatherlink.com 1.10,2013-06-29 03:18:00,
2013-06-28 22:33:00,69.1,63.0,29.63,NW,313,2.0,7.0,81,0.00,,,0.10,weatherlink.com 1.10,2013-06-29 03:33:00,
2013-06-28 22:48:00,68.6,63.0,29.62,NW,311,2.0,8.0,82,0.00,,,0.10,weatherlink.com 1.10,2013-06-29 03:48:00,
2013-06-28 23:03:00,68.3,63.0,29.62,WNW,293,2.0,8.0,83,0.00,,,0.10,weatherlink.com 1.10,2013-06-29 04:03:00,
2013-06-28 23:18:00,68.5,63.0,29.62,NNW,327,2.0,10.0,83,0.00,,,0.10,weatherlink.com 1.10,2013-06-29 04:18:00,
2013-06-28 23:33:00,68.4,63.0,29.62,NNW,329,2.0,6.0,83,0.00,,,0.10,weatherlink.com 1.10,2013-06-29 04:33:00,
2013-06-28 23:48:00,67.9,63.0,29.61,NW,315,2.0,7.0,84,0.00,,,0.10,weatherlink.com 1.10,2013-06-29 04:48:00,